Tracking 19562 objects as of 24-Mar-2019
HD Live streaming from Space Station
objects crossing your sky now

NSIGHT-1

Track NSIGHT-1 now!
10-day predictions
NSIGHT-1 is classified as:


NORAD ID: 42726
Int'l Code: 1998-067MF
Perigee: 369.2 km
Apogee: 375.2 km
Inclination: 51.6 °
Period: 91.8 minutes
Semi major axis: 6743 km
RCS: Unknown
Launch date: November 20, 1998
Source: South Africa (SAFR)
Launch site: TYURATAM MISSILE AND SPACE COMPLEX (TTMTR)

Uplink (MHz):
Downlink (MHz): 435.900//2405.000
Beacon (MHz):
Mode: 9600bps GMSK
Call sign: ON02AZ
Status: Active

aabbcc
Your satellite tracking list
Your tracking list is empty




NASA's NSSDC Master Catalog

Two Line Element Set (TLE):
1 42726U 98067MF  19083.06182287  .00016612  00000-0  15261-3 0  9990
2 42726  51.6389  30.7145 0004507 185.9250 174.1694 15.67844664104212
Source of the keplerian elements: AMSAT